Weather in Klimovsk

Russia / Komi Republic     61°17′08″N   53°38′52″E
temp.,
°C
wind,
m/s
gust,
m/s
humid.,
%
clouds,
%
prec.,
mm/h
press.,
hPa
HPBL,
m
7 july, thu
thu700:00+16w11796 0.0 101213
03:00+16w118691 0.0 101311
06:00+22w23654 0.0 1014288
09:00+27w12445 0.0 10141242
12:00+29ssw2435100 0.0 10142888
15:00+26sw125075 0.0 1014700
18:00+25ssw375969 0.0 1014294
21:00+21ssw247469 0.0 101568
8 july, fri
fri800:00+19ssw268332 0.0 1015117
03:00+18ssw28875 0.0 1015163
06:00+23ssw4106864 0.0 1015421
09:00+25ssw486123 0.0 1014686
12:00+29sw4741100 0.1 10132538
15:00+26wsw4858100 0.3 10141009
18:00+19ssw2691100 2.1 1013140
21:00+19wnw3798100 13.4 1013231
9 july, sat
sat900:00+18wsw2897100 1.8 1014214
03:00+17sw239989 3.4 1014100
06:00+19w238748 0.3 1015240
09:00+24w234898 0.3 10151004
12:00+27wnw234019 0.0 10141731
15:00+28nw123896 0.0 10142024
18:00+21ssw2474100 0.3 101491
21:00+19wsw1190100 1.0 101527
10 july, sun
sun1000:00+18ene119095 0.3 101422
03:00+17ese129795 0.6 101560
06:00+17e1499100 2.4 1015132
09:00+22se227766 3.1 1016655
12:00+24s2376100 2.1 10151063
15:00+25ne1265100 6.1 1016753
18:00+20se2592100 2.5 1016130
21:00+18se1194100 6.8 101718
11 july, mon
mon1100:00+17sse239696 1.7 101764
03:00+16s2397100 3.0 101857
06:00+20ssw248921 0.0 1019201
09:00+25sw2355100 0.0 10191007
12:00+28ssw234383 0.0 10192337
15:00+25sse116249 0.0 101914
18:00+26s136048 0.0 1019165
21:00+19nw018842 0.3 102011